Location: *
(34.6903°N, 135.5184°E)
Time: 11:58:07
(UTC+00:00)

Cosmos 1371 Rocket - Pass Details

Date: 22 September 2019
Orbit: 753 x 790 km, 74.0° (Epoch: 15 October)

Event Time Altitude Azimuth Distance (km) Brightness Sun altitude
Rises 20:14:42 0° 343° (NNW) 3,288 7.2 -7.3°
Reaches altitude 10° 20:17:07 10° 344° (NNW) 2,353 6.4 -6.8°
Maximum altitude 20:22:29 87° 73° (ENE) 789 4.2 -5.7°
Drops below altitude 10° 20:27:47 10° 163° (SSE) 2,320 6.7 -4.6°
Sets 20:30:08 0° 164° (SSE) 3,238 7.4 -4.1°
